Great Bend, KS

1:10 PM CDT on April 25, 2017 (GMT -0500)
Great Bend Municipal

Weather History for KGBD - November, 2012

Change the Weather History Date:

Friday, November 2, 2012

  Actual Average Record
Temperature  
Mean Temperature 56 °F -  
Max Temperature 68 °F 58 °F 81 °F (1980)
Min Temperature 44 °F 36 °F 11 °F (1991)
Degree Days  
Heating Degree Days 9    
Growing Degree Days 6 (Base 50)    
Moisture  
Dew Point 38 °F    
Average Humidity 58    
Maximum Humidity 76    
Minimum Humidity 40    
Precipitation  
Precipitation 0.00 in - - ()
Sea Level Pressure  
Sea Level Pressure 29.88 in    
Wind  
Wind Speed 10 mph (NE)    
Max Wind Speed 21 mph    
Max Gust Speed 25 mph    
Visibility 10 miles    
Events      
Averages and records for this station are not official NWS values.
T = Trace of Precipitation, MM = Missing Value Source: NWS Daily Summary

Daily Weather History Graph

Daily Weather History Graph

Search for Another Location

Airport or City:

Trip Planner

Search our weather history database for the weather conditions in past years. The results will help you decide how hot, cold, wet, or windy it might be!

Date:

Astronomy

Nov. 02, 2012 Rise Set
Actual Time 8:03 AM CDT 6:34 PM CDT
Civil Twilight 7:35 AM CDT 7:01 PM CDT
Nautical Twilight 7:04 AM CDT 7:32 PM CDT
Astronomical Twilight 6:33 AM CDT 8:03 PM CDT
Moon 9:24 PM CDT (11/2) 11:23 AM CDT (11/2)
Length of Visible Light 11h 25m
Length of Day
10h 30m
Waning Gibbous, 87% of the Moon is Illuminated
Nov 2
Waning Gibbous
Nov 6
Last Quarter
Nov 13
New
Nov 20
First Quarter
Nov 28
Full

Hourly Weather History & Observations

Time (CDT) Temp. Windchill Dew Point Humidity Pressure Visibility Wind Dir Wind Speed Gust Speed Precip Events Conditions
12:15 AM 50.0 °F - 33.8 °F 54% 29.89 in 10.0 mi SSE 9.2 mph - N/A   Clear
12:35 AM 50.0 °F - 35.6 °F 58% 29.89 in 10.0 mi SSE 8.1 mph - N/A   Clear
12:55 AM 51.8 °F - 35.6 °F 54% 29.88 in 10.0 mi SSE 6.9 mph - N/A   Clear
1:15 AM 50.0 °F - 35.6 °F 58% 29.88 in 10.0 mi SSE 9.2 mph - N/A   Clear
1:35 AM 51.8 °F - 35.6 °F 54% 29.87 in 10.0 mi SE 8.1 mph - N/A   Clear
1:55 AM 51.8 °F - 37.4 °F 58% 29.87 in 10.0 mi SSE 8.1 mph - N/A   Clear
2:15 AM 51.8 °F - 35.6 °F 54% 29.87 in 10.0 mi SE 6.9 mph - N/A   Clear
2:35 AM 48.2 °F - 35.6 °F 62% 29.87 in 10.0 mi SE 5.8 mph - N/A   Clear
2:55 AM 48.2 °F - 35.6 °F 62% 29.87 in 10.0 mi ESE 5.8 mph - N/A   Clear
3:15 AM 48.2 °F - 35.6 °F 62% 29.86 in 10.0 mi East 6.9 mph - N/A   Clear
3:35 AM 48.2 °F - 35.6 °F 62% 29.86 in 10.0 mi East 6.9 mph - N/A   Clear
3:55 AM 48.2 °F - 35.6 °F 62% 29.85 in 10.0 mi ESE 9.2 mph - N/A   Clear
4:15 AM 48.2 °F - 37.4 °F 66% 29.84 in 10.0 mi ESE 10.4 mph - N/A   Clear
4:35 AM 48.2 °F - 35.6 °F 62% 29.83 in 10.0 mi ESE 8.1 mph - N/A   Clear
4:55 AM 48.2 °F - 35.6 °F 62% 29.82 in 10.0 mi ESE 5.8 mph - N/A   Clear
5:15 AM 48.2 °F - 37.4 °F 66% 29.82 in 10.0 mi ESE 9.2 mph - N/A   Clear
5:35 AM 46.4 °F 41.9 °F 37.4 °F 71% 29.81 in 10.0 mi SE 9.2 mph - N/A   Clear
5:55 AM 48.2 °F - 37.4 °F 66% 29.81 in 10.0 mi SE 9.2 mph - N/A   Clear
6:15 AM 48.2 °F - 37.4 °F 66% 29.80 in 10.0 mi SE 12.7 mph - N/A   Clear
6:35 AM 46.4 °F 41.5 °F 37.4 °F 71% 29.80 in 10.0 mi SE 10.4 mph - N/A   Clear
6:55 AM 46.4 °F 40.4 °F 37.4 °F 71% 29.79 in 10.0 mi SE 13.8 mph - N/A   Clear
7:15 AM 48.2 °F - 37.4 °F 66% 29.80 in 10.0 mi SE 8.1 mph - N/A   Clear
7:35 AM 46.4 °F 41.9 °F 37.4 °F 71% 29.81 in 10.0 mi SE 9.2 mph - N/A   Clear
7:55 AM 44.6 °F 40.2 °F 37.4 °F 76% 29.80 in 10.0 mi SE 8.1 mph - N/A   Clear
8:15 AM 44.6 °F 40.2 °F 37.4 °F 76% 29.80 in 10.0 mi SE 8.1 mph - N/A   Clear
8:35 AM 44.6 °F 40.2 °F 37.4 °F 76% 29.80 in 10.0 mi SE 8.1 mph - N/A   Clear
8:55 AM 44.6 °F 41.4 °F 37.4 °F 76% 29.82 in 10.0 mi SE 5.8 mph - N/A   Clear
9:15 AM 46.4 °F 42.9 °F 39.2 °F 76% 29.82 in 10.0 mi SE 6.9 mph - N/A   Clear
9:35 AM 48.2 °F - 39.2 °F 71% 29.82 in 10.0 mi SSE 6.9 mph - N/A   Clear
9:55 AM 51.8 °F - 41.0 °F 67% 29.82 in 10.0 mi SSE 8.1 mph - N/A   Clear
10:15 AM 53.6 °F - 41.0 °F 62% 29.81 in 10.0 mi South 8.1 mph - N/A   Clear
10:35 AM 55.4 °F - 41.0 °F 58% 29.81 in 10.0 mi SSW 6.9 mph - N/A   Clear
10:55 AM 57.2 °F - 39.2 °F 51% 29.81 in 10.0 mi WSW 5.8 mph - N/A   Clear
11:15 AM 57.2 °F - 39.2 °F 51% 29.82 in 10.0 mi West 6.9 mph - N/A   Clear
11:35 AM 60.8 °F - 37.4 °F 42% 29.82 in 10.0 mi WNW 8.1 mph - N/A   Clear
11:55 AM 60.8 °F - 39.2 °F 45% 29.83 in 10.0 mi NW 8.1 mph - N/A   Clear
12:15 PM 62.6 °F - 39.2 °F 42% 29.83 in 10.0 mi NNW 9.2 mph - N/A   Clear
12:35 PM 62.6 °F - 39.2 °F 42% 29.83 in 10.0 mi NNW 11.5 mph - N/A   Clear
12:55 PM 62.6 °F - 41.0 °F 45% 29.83 in 10.0 mi NNW 11.5 mph - N/A   Clear
1:15 PM 62.6 °F - 41.0 °F 45% 29.83 in 10.0 mi NNW 11.5 mph - N/A   Clear
1:35 PM 64.4 °F - 42.8 °F 45% 29.83 in 10.0 mi NNW 11.5 mph - N/A   Clear
1:55 PM 66.2 °F - 41.0 °F 40% 29.83 in 10.0 mi NNW 15.0 mph 20.7 mph N/A   Clear
2:15 PM 66.2 °F - 42.8 °F 43% 29.83 in 10.0 mi North 16.1 mph - N/A   Clear
2:35 PM 66.2 °F - 42.8 °F 43% 29.83 in 10.0 mi North 12.7 mph - N/A   Clear
2:55 PM 68.0 °F - 42.8 °F 40% 29.83 in 10.0 mi North 15.0 mph 21.9 mph N/A   Clear
3:15 PM 66.2 °F - 42.8 °F 43% 29.84 in 10.0 mi North 16.1 mph - N/A   Clear
3:35 PM 66.2 °F - 42.8 °F 43% 29.85 in 10.0 mi NNW 16.1 mph - N/A   Clear
3:55 PM 66.2 °F - 42.8 °F 43% 29.86 in 10.0 mi North 13.8 mph 19.6 mph N/A   Clear
4:15 PM 66.2 °F - 42.8 °F 43% 29.87 in 10.0 mi North 16.1 mph 20.7 mph N/A   Clear
4:35 PM 64.4 °F - 42.8 °F 45% 29.87 in 10.0 mi North 16.1 mph 23.0 mph N/A   Clear
4:55 PM 64.4 °F - 42.8 °F 45% 29.88 in 10.0 mi North 20.7 mph - N/A   Clear
5:15 PM 62.6 °F - 41.0 °F 45% 29.89 in 10.0 mi North 19.6 mph 24.2 mph N/A   Clear
5:35 PM 62.6 °F - 41.0 °F 45% 29.90 in 10.0 mi North 19.6 mph - N/A   Clear
5:55 PM 60.8 °F - 39.2 °F 45% 29.92 in 10.0 mi North 18.4 mph 21.9 mph N/A   Clear
6:15 PM 59.0 °F - 39.2 °F 48% 29.92 in 10.0 mi North 12.7 mph - N/A   Clear
6:35 PM 57.2 °F - 39.2 °F 51% 29.93 in 10.0 mi North 12.7 mph - N/A   Clear
6:55 PM 55.4 °F - 39.2 °F 54% 29.94 in 10.0 mi North 12.7 mph - N/A   Clear
7:15 PM 55.4 °F - 39.2 °F 54% 29.95 in 10.0 mi North 16.1 mph - N/A   Clear
7:35 PM 55.4 °F - 39.2 °F 54% 29.97 in 10.0 mi North 13.8 mph - N/A   Clear
7:55 PM 51.8 °F - 37.4 °F 58% 29.98 in 10.0 mi North 18.4 mph 25.3 mph N/A   Clear
8:15 PM 50.0 °F - 35.6 °F 58% 30.00 in 10.0 mi North 17.3 mph - N/A   Clear
8:35 PM 48.2 °F - 35.6 °F 62% 30.01 in 10.0 mi North 15.0 mph 20.7 mph N/A   Clear
8:55 PM 48.2 °F - 35.6 °F 62% 30.02 in 10.0 mi North 16.1 mph 23.0 mph N/A   Clear
9:15 PM 48.2 °F - 35.6 °F 62% 30.02 in 10.0 mi North 19.6 mph 24.2 mph N/A   Clear
9:35 PM 48.2 °F - 35.6 °F 62% 30.03 in 10.0 mi North 18.4 mph 25.3 mph N/A   Clear
9:55 PM 46.4 °F 40.7 °F 35.6 °F 66% 30.04 in 9.0 mi North 12.7 mph - N/A   Clear
10:15 PM 46.4 °F 40.4 °F 35.6 °F 66% 30.05 in 10.0 mi North 13.8 mph 21.9 mph N/A   Clear
10:35 PM 46.4 °F 40.4 °F 35.6 °F 66% 30.06 in 9.0 mi North 13.8 mph - N/A   Clear
10:55 PM 44.6 °F 38.1 °F 35.6 °F 71% 30.07 in 10.0 mi North 13.8 mph - N/A   Clear
11:15 PM 44.6 °F 37.8 °F 35.6 °F 71% 30.07 in 10.0 mi North 15.0 mph - N/A   Clear
11:35 PM 44.6 °F 38.1 °F 35.6 °F 71% 30.08 in 10.0 mi North 13.8 mph - N/A   Clear
11:55 PM 44.6 °F 38.8 °F 35.6 °F 71% 30.09 in 10.0 mi North 11.5 mph - N/A   Clear